TimePST,TemperatureF,Dew PointF,Humidity,Sea Level PressureIn,VisibilityMPH,Wind Direction,Wind SpeedMPH,Gust SpeedMPH,PrecipitationIn,Events,Conditions,WindDirDegrees,DateUTC
12:54 AM,55.9,50.0,80,30.04,10.0,NNE,4.6,-,N/A,,Clear,20,2012-11-06 08:54:00
1:54 AM,50.0,46.0,86,30.04,10.0,Calm,Calm,-,N/A,,Clear,0,2012-11-06 09:54:00
2:54 AM,53.1,48.9,86,30.04,10.0,North,3.5,-,N/A,,Clear,360,2012-11-06 10:54:00
3:54 AM,51.1,46.9,86,30.04,10.0,North,5.8,-,N/A,,Clear,360,2012-11-06 11:54:00
4:54 AM,50.0,46.9,89,30.04,10.0,Calm,Calm,-,N/A,,Clear,0,2012-11-06 12:54:00
5:54 AM,51.1,46.0,83,30.05,10.0,Calm,Calm,-,N/A,,Clear,0,2012-11-06 13:54:00
6:54 AM,48.0,45.0,89,30.06,10.0,Calm,Calm,-,N/A,,Clear,0,2012-11-06 14:54:00
7:54 AM,57.0,51.1,81,30.06,10.0,North,3.5,-,N/A,,Clear,360,2012-11-06 15:54:00
8:54 AM,63.0,52.0,67,30.07,10.0,North,3.5,-,N/A,,Clear,360,2012-11-06 16:54:00
9:54 AM,69.1,53.1,57,30.06,10.0,East,6.9,-,N/A,,Clear,80,2012-11-06 17:54:00
10:54 AM,73.9,55.9,53,30.05,10.0,East,12.7,-,N/A,,Clear,100,2012-11-06 18:54:00
11:54 AM,77.0,55.9,48,30.02,10.0,East,11.5,-,N/A,,Clear,80,2012-11-06 19:54:00
12:54 PM,79.0,57.0,47,30.00,10.0,East,9.2,-,N/A,,Clear,90,2012-11-06 20:54:00
1:54 PM,80.1,55.9,43,29.99,10.0,ESE,8.1,-,N/A,,Clear,110,2012-11-06 21:54:00
2:54 PM,80.1,55.0,42,29.99,10.0,ESE,3.5,-,N/A,,Clear,110,2012-11-06 22:54:00
3:54 PM,77.0,59.0,54,29.98,10.0,SW,4.6,-,N/A,,Clear,220,2012-11-06 23:54:00
4:54 PM,71.1,59.0,66,29.97,10.0,Calm,Calm,-,N/A,,Clear,0,2012-11-07 00:54:00
5:54 PM,64.9,57.0,75,29.97,10.0,Calm,Calm,-,N/A,,Clear,0,2012-11-07 01:54:00
6:54 PM,60.1,54.0,80,29.98,10.0,Calm,Calm,-,N/A,,Clear,0,2012-11-07 02:54:00
7:54 PM,57.0,53.1,87,29.99,10.0,Calm,Calm,-,N/A,,Clear,0,2012-11-07 03:54:00
8:54 PM,54.0,52.0,93,29.99,10.0,Calm,Calm,-,N/A,,Clear,0,2012-11-07 04:54:00
9:54 PM,55.0,53.1,93,30.00,8.0,Calm,Calm,-,N/A,,Clear,0,2012-11-07 05:54:00
10:54 PM,52.0,48.9,89,30.01,5.0,Calm,Calm,-,N/A,,Clear,0,2012-11-07 06:54:00
11:29 PM,50.0,48.2,94,30.03,1.5,Calm,Calm,-,N/A,,Clear,0,2012-11-07 07:29:00
11:31 PM,50.0,48.2,94,30.03,0.8,Calm,Calm,-,N/A,,Mist,0,2012-11-07 07:31:00
11:38 PM,51.8,50.0,94,30.03,0.5,Calm,Calm,-,N/A,Fog,Fog,0,2012-11-07 07:38:00
11:41 PM,51.8,50.0,94,30.03,1.2,Calm,Calm,-,N/A,,Partly Cloudy,0,2012-11-07 07:41:00
11:48 PM,51.8,51.8,100,30.03,3.0,Calm,Calm,-,N/A,,Partly Cloudy,0,2012-11-07 07:48:00
11:51 PM,51.8,50.0,94,30.03,1.5,East,3.5,-,N/A,,Partly Cloudy,80,2012-11-07 07:51:00
11:54 PM,48.9,48.0,97,30.01,1.0,East,4.6,-,N/A,,Mist,90,2012-11-07 07:54:00